• In Netherlands
  • List of Countries
  • For 7 days
  • Water Temperature
  • Satellite Maps
  • Weather Map
  • Weather Widgets
  • user-avatar
    Login

    Hourly Weather Ghazni

    Today, 25 June, Sunday

    Time Temperature Precipitation Wind Pressure Humidity
    00:00 +27°C° 0 mm 3 mps 586 mmHg 26%
    01:00 +27°C° 0 mm 2 mps 586 mmHg 28%
    02:00 +26°C° 0 mm 2 mps 586 mmHg 31%
    03:00 +25°C° 0 mm 2 mps 585 mmHg 33%
    04:00 +24°C° 0 mm 1 mps 585 mmHg 35%
    05:00 +24°C° 0 mm 2 mps 585 mmHg 34%
    06:00 +25°C° 0 mm 2 mps 585 mmHg 32%
    07:00 +25°C° 0 mm 2 mps 586 mmHg 30%
    08:00 +26°C° 0 mm 2 mps 586 mmHg 29%
    09:00 +27°C° 0 mm 2 mps 586 mmHg 27%
    10:00 +28°C° 0 mm 2 mps 587 mmHg 26%
    11:00 +29°C° 0 mm 2 mps 587 mmHg 24%
    12:00 +30°C° 0 mm 3 mps 587 mmHg 22%
    13:00 +31°C° 0 mm 3 mps 587 mmHg 21%
    14:00 +33°C° 0 mm 3 mps 587 mmHg 20%
    15:00 +33°C° 0.1 mm 4 mps 587 mmHg 21%
    16:00 +33°C° 0.1 mm 4 mps 586 mmHg 22%
    17:00 +33°C° 0.1 mm 5 mps 586 mmHg 23%
    18:00 +32°C° 0.1 mm 5 mps 586 mmHg 26%
    19:00 +32°C° 0.1 mm 6 mps 586 mmHg 29%
    20:00 +30°C° 0.1 mm 7 mps 586 mmHg 32%
    21:00 +29°C° 0.6 mm 6 mps 586 mmHg 38%
    22:00 +27°C° 0.6 mm 6 mps 586 mmHg 43%
    23:00 +26°C° 0.6 mm 5 mps 586 mmHg 48%

    Tomorrow, 26 June, Monday

    Time Temperature Precipitation Wind Pressure Humidity
    00:00 +26°C° 0.2 mm 4 mps 586 mmHg 49%
    01:00 +25°C° 0.2 mm 4 mps 586 mmHg 50%
    02:00 +25°C° 0.2 mm 3 mps 586 mmHg 51%
    03:00 +24°C° 0 mm 3 mps 586 mmHg 52%
    04:00 +24°C° 0 mm 3 mps 586 mmHg 52%
    05:00 +24°C° 0 mm 3 mps 586 mmHg 52%
    06:00 +24°C° 0 mm 3 mps 586 mmHg 50%
    07:00 +24°C° 0 mm 3 mps 586 mmHg 48%
    08:00 +25°C° 0 mm 3 mps 587 mmHg 46%
    09:00 +26°C° 0 mm 2 mps 587 mmHg 41%
    10:00 +27°C° 0 mm 2 mps 587 mmHg 36%
    11:00 +28°C° 0 mm 2 mps 588 mmHg 31%
    12:00 +29°C° 0 mm 2 mps 588 mmHg 27%
    13:00 +30°C° 0 mm 3 mps 588 mmHg 23%
    14:00 +33°C° 0 mm 3 mps 588 mmHg 19%
    15:00 +33°C° 0 mm 3 mps 588 mmHg 17%
    16:00 +33°C° 0 mm 3 mps 588 mmHg 15%
    17:00 +34°C° 0 mm 3 mps 587 mmHg 14%
    18:00 +33°C° 0 mm 3 mps 587 mmHg 13%
    19:00 +33°C° 0 mm 3 mps 588 mmHg 13%
    20:00 +31°C° 0 mm 3 mps 588 mmHg 13%
    21:00 +30°C° 0 mm 3 mps 588 mmHg 16%
    22:00 +29°C° 0 mm 4 mps 588 mmHg 19%
    23:00 +28°C° 0 mm 5 mps 588 mmHg 22%

    Day after tomorrow, 27 June, Tuesday

    Time Temperature Precipitation Wind Pressure Humidity
    00:00 +27°C° 0 mm 4 mps 587 mmHg 24%
    01:00 +26°C° 0 mm 3 mps 587 mmHg 26%
    02:00 +25°C° 0 mm 3 mps 587 mmHg 29%
    03:00 +25°C° 0 mm 3 mps 586 mmHg 29%
    04:00 +24°C° 0 mm 3 mps 586 mmHg 30%
    05:00 +24°C° 0 mm 3 mps 586 mmHg 30%
    06:00 +24°C° 0 mm 3 mps 587 mmHg 30%
    07:00 +25°C° 0 mm 3 mps 587 mmHg 29%
    08:00 +25°C° 0 mm 4 mps 587 mmHg 29%
    09:00 +27°C° 0 mm 3 mps 588 mmHg 27%
    10:00 +28°C° 0 mm 3 mps 588 mmHg 25%
    11:00 +29°C° 0 mm 3 mps 588 mmHg 23%
    12:00 +30°C° 0 mm 2 mps 588 mmHg 21%
    13:00 +31°C° 0 mm 2 mps 588 mmHg 19%
    14:00 +32°C° 0 mm 2 mps 588 mmHg 16%
    15:00 +32°C° 0 mm 2 mps 587 mmHg 15%
    16:00 +33°C° 0 mm 3 mps 587 mmHg 15%
    17:00 +33°C° 0 mm 3 mps 587 mmHg 14%
    18:00 +33°C° 0 mm 3 mps 587 mmHg 14%
    19:00 +31°C° 0 mm 3 mps 587 mmHg 14%
    20:00 +31°C° 0 mm 3 mps 587 mmHg 14%
    21:00 +30°C° 0.2 mm 4 mps 587 mmHg 20%
    22:00 +28°C° 0.2 mm 4 mps 587 mmHg 26%
    23:00 +27°C° 0.2 mm 5 mps 587 mmHg 31%

    28 June, Wednesday

    Time Temperature Precipitation Wind Pressure Humidity
    00:00 +26°C° 0.3 mm 4 mps 586 mmHg 34%
    01:00 +26°C° 0.3 mm 3 mps 586 mmHg 37%
    02:00 +25°C° 0.3 mm 3 mps 586 mmHg 40%
    03:00 +24°C° 0 mm 3 mps 586 mmHg 40%
    04:00 +24°C° 0 mm 3 mps 586 mmHg 40%
    05:00 +24°C° 0 mm 3 mps 585 mmHg 40%
    06:00 +24°C° 0 mm 3 mps 586 mmHg 37%
    07:00 +25°C° 0 mm 3 mps 586 mmHg 33%
    08:00 +25°C° 0 mm 4 mps 587 mmHg 30%
    09:00 +26°C° 0 mm 3 mps 587 mmHg 28%
    10:00 +27°C° 0 mm 3 mps 587 mmHg 26%
    11:00 +28°C° 0 mm 3 mps 588 mmHg 24%
    12:00 +29°C° 0.1 mm 3 mps 587 mmHg 23%
    13:00 +30°C° 0.1 mm 3 mps 587 mmHg 22%
    14:00 +30°C° 0.1 mm 3 mps 587 mmHg 21%
    15:00 +30°C° 0.3 mm 3 mps 587 mmHg 23%
    16:00 +29°C° 0.3 mm 3 mps 586 mmHg 24%
    17:00 +29°C° 0.3 mm 3 mps 586 mmHg 26%
    18:00 +28°C° 0.2 mm 3 mps 586 mmHg 28%
    19:00 +28°C° 0.2 mm 4 mps 586 mmHg 30%
    20:00 +27°C° 0.2 mm 5 mps 586 mmHg 32%
    21:00 +26°C° 0.6 mm 4 mps 586 mmHg 36%
    22:00 +25°C° 0.6 mm 4 mps 585 mmHg 41%
    23:00 +24°C° 0.6 mm 3 mps 585 mmHg 45%

    29 June, Thursday

    Time Temperature Precipitation Wind Pressure Humidity
    00:00 +24°C° 0.4 mm 3 mps 585 mmHg 46%
    01:00 +24°C° 0.4 mm 3 mps 585 mmHg 47%
    02:00 +22°C° 0.4 mm 3 mps 584 mmHg 48%
    03:00 +22°C° 0 mm 3 mps 584 mmHg 47%
    04:00 +21°C° 0 mm 3 mps 584 mmHg 47%
    05:00 +21°C° 0 mm 3 mps 584 mmHg 46%
    06:00 +22°C° 0 mm 3 mps 585 mmHg 43%
    07:00 +22°C° 0 mm 3 mps 585 mmHg 40%
    08:00 +24°C° 0 mm 3 mps 586 mmHg 37%
    09:00 +25°C° 0 mm 2 mps 586 mmHg 33%
    10:00 +26°C° 0 mm 2 mps 586 mmHg 29%
    11:00 +27°C° 0 mm 1 mps 587 mmHg 25%
    12:00 +28°C° 0 mm 1 mps 587 mmHg 23%
    13:00 +29°C° 0 mm 2 mps 587 mmHg 20%
    14:00 +30°C° 0 mm 2 mps 587 mmHg 17%
    15:00 +31°C° 0 mm 2 mps 586 mmHg 15%
    16:00 +31°C° 0 mm 2 mps 586 mmHg 14%
    17:00 +32°C° 0 mm 2 mps 586 mmHg 13%
    18:00 +31°C° 0 mm 2 mps 586 mmHg 13%
    19:00 +31°C° 0 mm 3 mps 586 mmHg 14%
    20:00 +31°C° 0 mm 3 mps 586 mmHg 15%
    21:00 +29°C° 0.5 mm 4 mps 586 mmHg 21%
    22:00 +28°C° 0.5 mm 4 mps 586 mmHg 28%
    23:00 +26°C° 0.5 mm 5 mps 586 mmHg 34%

    30 June, Friday

    Time Temperature Precipitation Wind Pressure Humidity
    00:00 +26°C° 0.7 mm 5 mps 585 mmHg 39%
    01:00 +25°C° 0.7 mm 4 mps 585 mmHg 45%
    02:00 +23°C° 0.7 mm 4 mps 585 mmHg 50%
    03:00 +24°C° 0.1 mm 3 mps 584 mmHg 52%
    04:00 +23°C° 0.1 mm 2 mps 584 mmHg 53%
    05:00 +23°C° 0.1 mm 1 mps 584 mmHg 55%
    06:00 +23°C° 0 mm 1 mps 584 mmHg 50%
    07:00 +24°C° 0 mm 2 mps 585 mmHg 45%
    08:00 +24°C° 0 mm 2 mps 585 mmHg 41%
    09:00 +25°C° 0 mm 2 mps 585 mmHg 36%
    10:00 +26°C° 0 mm 1 mps 585 mmHg 31%
    11:00 +27°C° 0 mm 1 mps 585 mmHg 27%
    12:00 +29°C° 0 mm 1 mps 585 mmHg 24%
    13:00 +30°C° 0 mm 2 mps 585 mmHg 21%
    14:00 +31°C° 0 mm 2 mps 585 mmHg 18%
    15:00 +31°C° 0 mm 2 mps 585 mmHg 16%
    16:00 +33°C° 0 mm 3 mps 585 mmHg 14%
    17:00 +33°C° 0 mm 3 mps 585 mmHg 13%
    18:00 +33°C° 0 mm 3 mps 585 mmHg 13%
    19:00 +31°C° 0 mm 3 mps 585 mmHg 14%
    20:00 +32°C° 0 mm 4 mps 585 mmHg 14%
    21:00 +30°C° 0 mm 4 mps 585 mmHg 16%
    22:00 +28°C° 0 mm 5 mps 585 mmHg 19%
    23:00 +27°C° 0 mm 6 mps 585 mmHg 21%
    Show more